CAPE
6 9 22 36 36 32 25 22 19 19 19 19 14 14 14 11 5 5 5 3 3 2 4 11 11 19 41 86 119 119 139 172 227 227 262 293 329 329 318 287 287 290 312 282 282 273 229 212 212 180 150 135 121 121 106 106 106 114 156 194 194 203 234 322 322 385 455 492 482 482 507 511 546 546 556 622 685 685 742 719 719 613 585 629 629 772
20 19 17 18 18 10 10 14 19 19 19 18 16 16 12 9 2 2 2 1 1 2 6 11 11 22 45 74 121 121 126 131 139 139 171 241 268 268 268 259 259 253 277 293 293 290 244 226 226 193 174 139 100 100 85 71 71 75 87 120 120 159 193 259 259 342 359 396 413 413 435 462 466 466 419 457 549 549 608 632 632 541 366 357 357 471
24 14 9 11 11 8 6 10 17 17 25 23 22 22 20 18 9 9 5 4 4 7 14 15 15 20 28 37 85 85 83 90 99 99 116 147 220 220 284 301 301 273 277 305 305 280 236 196 196 197 176 139 77 77 47 45 45 50 57 76 76 103 133 176 176 215 246 258 293 293 336 332 330 330 282 316 410 410 504 559 559 579 453 293 293 268
18 10 6 7 7 9 7 9 13 13 20 24 29 29 30 25 22 22 16 10 10 15 17 13 13 10 10 10 35 35 56 73 102 102 121 167 244 244 278 270 270 240 193 217 217 256 226 207 207 199 164 109 74 74 62 64 64 47 44 47 47 69 75 89 89 103 129 128 158 158 180 173 148 148 143 208 322 322 450 544 544 627 551 406 406 278
7 4 2 2 2 3 5 6 11 11 19 23 25 25 30 30 28 28 25 25 25 25 22 21 21 13 6 6 20 20 55 86 122 122 150 203 237 237 264 257 257 194 171 195 195 251 225 203 203 191 163 154 149 149 124 92 92 73 48 58 58 46 51 33 33 32 22 34 39 39 46 52 45 45 57 139 263 263 393 523 523 610 538 460 460 346
8 3 2 2 2 3 6 9 17 17 24 24 27 27 26 34 31 31 32 26 26 28 26 28 28 27 20 17 45 45 81 121 150 150 170 171 196 196 222 200 200 196 177 214 214 217 230 206 206 202 183 210 180 180 154 133 133 85 72 58 58 42 27 15 15 8 6 3 1 1 1 6 19 19 42 88 207 207 309 415 415 499 433 413 413 360
11 8 10 9 9 12 15 17 24 24 22 23 28 28 32 35 35 35 30 27 27 27 26 27 27 29 30 37 71 71 112 123 140 140 137 126 126 126 119 135 135 192 187 203 203 249 226 268 268 225 190 178 148 148 143 123 123 90 75 49 49 30 15 6 6 1 1 0 nan nan nan 0 2 2 21 45 104 104 200 249 249 333 271 254 254 290
44 43 51 43 43 41 34 34 33 33 31 29 30 30 26 18 17 17 26 33 33 35 30 22 22 20 27 41 38 38 18 5 3 3 18 18 37 37 50 54 54 46 31 16 16 20 55 97 97 127 131 137 131 131 132 120 120 76 51 21 21 7 5 7 7 6 4 3 2 2 1 1 0 0 1 1 5 5 13 28 28 57 56 103 103 140
83 92 81 62 62 48 38 31 29 29 23 32 38 38 40 29 22 22 22 20 20 24 21 20 20 18 14 18 14 14 13 12 10 10 23 22 38 38 64 73 73 56 39 26 26 18 21 48 48 86 102 120 137 137 142 109 109 69 33 14 14 2 nan 1 1 2 4 3 5 5 4 3 2 2 0 0 0 0 1 4 4 13 33 119 119 243
131 111 59 34 34 32 24 23 20 20 25 42 48 48 47 43 30 30 19 16 16 14 20 31 31 24 17 15 14 14 14 22 44 44 70 61 90 90 68 33 33 40 42 43 43 42 38 46 46 68 81 98 116 116 122 85 85 43 9 nan nan nan nan nan nan 1 1 3 8 8 9 8 6 6 3 0 nan nan 0 0 0 5 15 90 90 269
141 77 35 21 21 17 16 20 25 25 36 37 37 37 28 28 35 35 25 19 19 17 18 24 24 23 18 13 13 13 18 22 40 40 70 59 36 36 16 8 8 12 39 60 60 66 71 74 74 65 72 70 79 79 80 43 43 7 nan nan nan nan nan nan nan nan nan 0 4 4 10 13 12 12 7 2 0 0 nan nan nan 1 8 25 25 159
32 16 16 13 13 19 17 27 30 30 37 30 26 26 21 22 38 38 31 25 25 19 21 19 19 15 29 29 29 29 34 49 61 61 39 19 9 9 3 5 5 12 66 100 100 114 112 93 93 97 82 78 50 50 37 13 13 nan nan nan nan nan nan nan nan nan nan nan nan nan 5 14 16 16 12 4 1 1 nan nan nan nan 3 14 14 49
6 7 10 19 19 21 27 38 28 28 26 23 25 25 22 17 27 27 35 30 30 25 26 34 34 36 38 51 63 63 63 64 51 51 23 16 14 14 12 22 22 56 112 165 165 174 116 123 123 128 109 88 39 39 8 nan nan nan nan nan nan nan nan nan nan nan nan nan nan nan 0 5 10 10 13 8 2 2 nan nan nan nan 1 6 6 17
6 5 10 19 19 27 41 49 52 52 33 23 22 22 19 18 17 17 23 38 38 37 41 60 60 42 51 56 78 78 85 53 28 28 24 24 35 35 85 122 122 137 63 18 18 2 9 27 27 64 89 90 68 68 23 1 1 0 nan nan nan nan nan nan nan nan nan nan nan nan nan 0 5 5 10 10 4 4 0 nan nan nan nan 0 0 3
12 17 16 22 22 36 60 68 49 49 34 19 16 16 13 17 20 20 31 52 52 55 54 60 60 67 52 58 71 71 67 46 38 38 41 78 163 163 196 127 127 33 nan nan nan nan nan 1 1 14 32 54 40 40 35 49 49 6 nan nan nan nan nan nan nan nan nan 0 0 0 0 0 2 2 7 9 5 5 0 nan nan nan nan nan nan nan
13 30 30 33 33 47 63 48 30 30 13 12 13 13 16 28 41 41 70 86 86 88 77 87 87 91 79 67 71 71 64 65 73 73 102 147 174 174 121 46 46 16 3 nan nan nan nan 0 0 5 12 14 9 9 6 19 19 2 1 nan nan nan nan nan nan nan 2 2 2 2 2 1 2 2 5 7 3 3 1 nan nan nan nan nan nan nan
24 36 47 58 58 50 39 23 10 10 11 11 11 11 22 58 94 94 90 87 87 82 78 59 59 58 107 130 121 121 117 82 148 148 140 112 61 61 45 30 30 18 11 10 10 6 4 2 2 3 3 7 11 11 10 8 8 4 0 nan nan nan nan 0 0 2 4 6 5 5 4 3 3 3 4 6 3 3 0 nan nan nan nan nan nan nan
54 62 55 58 58 38 24 14 8 8 16 13 19 19 47 95 119 119 100 89 89 56 48 68 68 50 87 125 175 175 207 154 90 90 61 37 21 21 26 20 20 14 14 13 13 9 9 4 4 0 3 7 9 9 13 12 12 10 7 5 5 3 1 3 3 5 7 9 8 8 7 5 4 4 5 5 2 2 0 nan nan nan nan nan nan nan
65 65 40 35 35 31 19 7 9 9 17 25 41 41 86 111 92 92 74 86 86 73 74 76 76 91 115 109 81 81 99 49 33 33 23 16 9 9 8 11 11 11 8 10 10 10 10 9 9 8 4 7 12 12 15 17 17 19 16 12 12 8 7 8 8 10 11 13 11 11 10 7 6 6 5 5 2 2 0 nan nan nan nan nan nan nan
48 51 41 34 34 25 22 21 16 16 29 67 90 90 40 27 50 50 61 79 79 86 83 57 57 44 34 20 6 6 4 11 16 16 15 9 6 6 7 11 11 17 9 10 10 10 11 7 7 8 10 15 23 23 22 24 24 27 22 15 15 12 12 12 12 13 14 15 15 15 12 9 7 7 7 6 2 2 0 nan nan nan nan nan nan nan
44 38 33 28 28 26 21 10 13 13 36 62 7 7 2 31 72 72 82 54 54 35 17 12 12 13 11 9 5 5 7 12 12 12 9 11 8 8 8 16 16 18 14 10 10 12 15 9 9 16 19 26 28 28 32 29 29 25 20 16 16 16 13 13 13 13 15 14 14 14 13 11 9 9 8 7 2 2 0 nan nan nan nan nan nan nan
32 33 37 44 44 33 27 12 19 19 54 10 3 3 36 66 46 46 26 11 11 10 13 12 12 13 13 8 10 10 15 18 11 11 7 16 16 16 13 24 24 29 26 18 18 21 13 2 2 27 51 39 37 37 28 17 17 16 10 8 8 8 7 6 6 7 10 12 13 13 14 13 13 13 10 6 2 2 nan nan nan nan nan nan nan nan
30 36 48 57 57 46 30 25 26 26 50 59 85 85 104 65 45 45 36 33 33 28 24 28 28 22 21 17 18 18 17 17 12 12 9 15 34 34 57 64 64 55 81 76 76 21 11 24 24 44 34 10 2 2 nan nan nan 0 1 1 1 2 0 1 1 3 6 9 11 11 13 16 15 15 11 6 2 2 nan nan nan nan nan nan nan nan
27 42 63 70 70 61 50 17 9 9 51 70 73 73 92 76 71 71 52 48 48 44 48 60 60 46 33 25 23 23 20 20 16 16 33 61 101 101 35 24 24 40 40 3 3 3 26 29 29 9 nan nan nan nan nan nan nan nan nan nan nan nan nan 0 0 2 4 7 9 9 13 15 17 17 12 7 2 2 nan nan nan nan nan nan nan nan
27 49 61 73 73 103 83 58 103 103 60 27 43 43 93 123 89 89 53 51 51 58 65 58 58 59 46 43 41 41 89 76 44 44 3 6 1 1 0 3 3 0 nan nan nan 3 16 9 9 0 nan nan nan nan nan nan nan nan nan nan nan nan 0 1 1 2 4 5 8 8 11 15 16 16 13 6 1 1 nan nan nan nan nan nan nan nan
69 82 95 134 134 201 226 219 206 206 93 30 52 52 93 100 75 75 50 51 51 70 79 55 55 45 38 40 63 63 73 51 8 8 nan 2 3 3 0 0 0 4 2 0 0 2 14 16 16 12 3 nan nan nan nan nan nan nan nan 0 0 1 2 2 2 2 3 4 5 5 9 11 12 12 10 5 1 1 nan nan nan nan nan nan nan nan
140 168 213 241 241 255 278 255 170 170 141 88 71 71 83 75 66 66 45 48 48 67 55 36 36 31 27 22 20 20 19 19 14 14 12 8 6 6 1 2 2 9 12 11 11 28 44 35 35 29 17 nan nan nan nan nan nan 0 1 3 3 5 4 3 3 2 2 3 4 4 7 9 10 10 7 4 1 1 0 0 0 nan nan nan nan nan
108 129 141 167 167 188 175 124 95 95 90 102 148 148 117 56 46 46 36 43 43 57 38 31 31 20 25 36 32 32 22 6 4 4 9 10 6 6 4 16 16 36 28 35 35 52 44 25 25 13 7 nan nan nan nan 0 0 2 4 6 6 6 5 4 4 3 3 2 4 4 7 8 8 8 7 6 4 4 4 1 1 nan nan nan nan nan
65 72 85 91 91 91 77 71 73 73 80 96 134 134 118 41 33 33 39 53 53 55 33 26 26 26 34 36 27 27 8 2 4 4 15 18 14 14 28 18 18 4 8 11 11 10 9 13 13 11 nan nan nan nan 0 1 1 2 4 5 5 6 5 4 4 3 2 2 4 4 5 7 7 7 7 8 7 7 2 nan nan nan nan nan nan nan
26 38 47 55 55 53 51 45 60 60 78 99 135 135 114 46 44 44 52 69 69 57 40 44 44 42 40 29 9 9 3 2 13 13 45 31 49 49 61 26 26 21 18 17 17 9 5 4 4 nan nan nan 1 1 0 1 1 1 2 4 4 5 6 4 4 3 2 2 3 3 3 6 7 7 8 8 0 0 nan nan nan nan nan nan nan nan
8 12 14 20 20 24 24 24 38 38 66 106 125 125 88 44 56 56 75 84 84 72 53 48 48 39 27 18 8 8 4 5 27 27 45 26 13 13 12 20 20 23 27 28 28 13 14 0 0 nan 1 2 1 1 0 0 0 1 1 3 3 6 9 6 6 2 2 2 1 1 2 4 6 6 2 nan nan nan nan nan nan nan nan nan nan nan
5 7 8 9 9 9 9 12 28 28 56 72 58 58 56 61 78 78 86 71 71 52 39 33 33 31 35 35 23 23 12 10 17 17 22 15 19 19 28 34 34 42 66 66 66 40 12 10 10 13 nan nan nan nan nan nan nan 1 2 3 3 6 13 5 5 4 0 0 nan nan nan nan nan nan nan nan 0 0 0 0 0 nan nan nan nan nan
7 7 8 11 11 11 13 21 47 47 78 60 42 42 40 57 75 75 65 49 49 42 32 26 26 28 33 33 24 24 11 8 23 23 30 23 22 22 29 31 31 30 34 30 30 24 16 12 12 13 12 5 nan nan nan nan nan 0 1 2 2 4 4 1 1 1 0 0 0 0 1 0 0 0 1 1 3 3 3 2 2 nan nan nan nan nan
8 11 12 14 14 15 24 41 64 64 63 42 36 36 38 43 42 42 39 37 37 46 29 20 20 23 26 24 22 22 9 10 22 22 28 24 20 20 22 20 20 18 16 9 9 11 13 16 16 13 11 8 nan nan nan nan nan nan 1 2 2 3 2 0 0 0 0 nan nan nan 1 4 10 10 9 11 10 10 8 4 4 0 nan nan nan nan
9 10 11 13 13 15 21 41 56 56 50 33 33 33 35 35 26 26 27 34 34 38 28 19 19 24 19 18 18 18 12 12 22 22 29 20 14 14 11 16 16 13 7 7 7 7 8 12 12 15 11 12 nan nan nan nan nan nan 0 1 1 2 1 nan nan nan nan nan nan nan 0 4 6 6 9 14 15 15 13 10 10 7 2 0 0 nan
7 12 12 18 18 18 24 44 49 49 41 27 22 22 29 30 28 28 25 25 25 32 33 30 30 27 14 14 10 10 14 16 23 23 28 16 10 10 8 9 9 9 5 5 5 5 6 8 8 13 17 11 nan nan nan nan nan nan nan 0 0 1 0 nan nan nan nan nan nan nan 1 7 8 8 9 20 19 19 19 19 19 18 17 14 14 11
12 13 17 17 17 21 30 45 38 38 27 22 23 23 31 28 31 31 21 19 19 23 28 34 34 26 26 12 10 10 10 13 18 18 23 15 4 4 0 5 5 6 3 3 3 6 6 8 8 12 16 9 nan nan nan nan nan nan nan nan nan 0 nan nan nan nan nan nan nan nan 2 7 9 9 13 24 18 18 22 26 26 25 23 23 23 19
13 15 18 17 17 21 29 31 30 30 25 22 24 24 31 35 38 38 27 19 19 23 26 26 26 17 36 32 18 18 14 15 15 15 16 7 0 0 0 0 0 3 4 4 4 6 7 10 10 11 12 1 nan nan nan nan nan nan nan nan nan nan nan nan nan nan nan 0 2 2 6 10 12 12 13 10 6 6 6 7 7 17 17 15 15 19
11 11 13 19 19 25 28 26 23 23 22 26 32 32 37 42 39 39 23 17 17 26 35 25 25 18 13 14 24 24 22 13 8 8 5 0 0 0 0 0 0 1 2 3 3 6 7 10 10 10 12 nan nan nan nan nan nan nan nan nan nan nan nan nan nan 0 nan 0 3 3 4 6 12 12 7 5 2 2 1 2 2 8 8 5 5 15
12 15 16 21 21 21 25 28 20 20 23 31 39 39 40 30 20 20 18 18 18 20 24 23 23 18 15 18 16 16 15 8 13 13 2 1 2 2 1 1 1 1 1 3 3 6 8 9 9 10 13 0 nan nan nan nan nan nan 0 nan nan nan nan nan nan nan 0 0 0 0 1 0 3 3 3 3 1 1 1 1 1 3 5 1 1 1
13 15 17 17 17 19 24 24 25 25 29 32 33 33 30 23 8 8 9 11 11 13 15 18 18 14 12 13 6 6 5 5 8 8 0 2 7 7 4 3 3 2 2 3 3 5 8 8 8 9 13 0 nan nan nan nan nan 0 1 nan nan nan nan nan nan nan nan nan 1 1 1 1 2 2 1 1 0 0 1 1 1 2 3 3 3 1
20 16 13 12 12 12 14 23 28 28 29 23 28 28 27 17 10 10 10 14 14 14 14 13 13 10 8 4 5 5 1 nan 1 1 4 5 9 9 8 5 5 3 3 3 3 6 10 13 13 12 8 nan nan nan nan 0 0 1 nan nan nan nan nan nan nan nan nan nan 0 0 1 nan nan nan nan nan 0 0 1 3 3 5 2 2 2 3
12 11 10 12 12 12 21 26 24 24 20 18 22 22 20 14 16 16 19 14 14 16 13 10 10 9 8 5 3 3 2 0 3 3 6 7 10 10 10 7 7 2 1 3 3 5 8 10 10 3 nan nan nan nan 0 0 0 0 nan 0 0 nan nan nan nan nan nan nan nan nan nan nan nan nan nan nan nan nan 0 4 4 7 4 0 0 0
11 9 9 12 12 13 18 14 13 13 13 15 19 19 18 16 19 19 16 11 11 15 11 7 7 8 7 3 4 4 8 10 4 4 4 7 8 8 8 5 5 1 1 2 2 1 0 nan nan nan nan nan nan nan nan nan nan nan 0 0 0 nan nan nan nan nan nan nan nan nan nan nan nan nan nan nan nan nan nan nan nan nan 0 nan nan nan
2 8 11 15 15 14 11 11 12 12 13 17 19 19 19 19 22 22 8 10 10 14 10 6 6 7 4 4 7 7 7 2 1 1 1 5 9 9 6 3 3 1 1 0 0 0 nan nan nan nan nan nan 0 0 nan nan nan nan 0 nan nan nan nan nan nan nan nan nan nan nan nan nan nan nan nan nan nan nan nan nan nan nan nan nan nan nan
9 9 8 9 9 7 9 9 9 9 10 18 26 26 18 18 14 14 15 13 13 10 9 7 7 5 3 6 8 8 7 2 0 0 nan 0 1 1 2 3 3 3 1 0 0 0 nan nan nan 0 0 nan nan nan nan nan nan nan nan nan nan nan nan nan nan nan nan nan nan nan nan nan nan nan nan nan nan nan nan nan nan nan nan nan nan nan
8 6 5 3 3 4 4 8 7 7 10 17 22 22 20 15 14 14 14 12 12 7 7 6 6 5 7 7 5 5 3 1 0 0 nan nan nan nan nan 1 1 4 1 1 1 0 0 0 0 nan nan nan nan nan nan nan nan nan nan nan nan nan nan nan nan nan nan nan nan nan nan nan nan nan nan nan nan nan nan nan nan nan nan nan nan nan
8 8 3 3 3 3 5 5 5 5 8 11 15 15 18 13 14 14 11 8 8 6 8 3 3 4 5 6 4 4 3 1 0 0 0 nan nan nan nan nan nan 0 2 3 3 3 0 0 0 nan nan nan nan nan nan nan nan nan nan nan nan nan nan nan nan nan nan nan nan nan nan nan nan nan nan nan nan nan nan nan nan nan nan nan nan nan
8 4 5 4 4 4 5 5 5 5 6 13 20 20 19 24 33 33 7 7 7 3 3 3 3 2 4 4 2 2 2 1 0 0 0 0 0 0 nan nan nan nan 0 1 1 1 2 2 2 1 nan nan nan nan nan nan nan nan nan nan nan nan nan nan nan nan nan nan nan nan nan nan nan nan nan nan nan nan nan nan nan nan nan nan nan nan
2 3 5 1 1 1 4 6 8 8 14 26 19 19 11 4 3 3 2 3 3 1 1 1 1 2 4 1 1 1 1 0 0 0 0 0 0 0 nan nan nan nan nan nan nan nan nan 1 1 5 6 0 nan nan nan nan nan nan nan nan nan nan nan nan nan nan nan nan nan nan nan nan nan nan nan nan nan nan nan nan nan nan nan nan nan nan
4 3 3 0 0 2 4 3 7 7 14 21 14 14 5 2 1 1 2 1 1 1 0 1 1 2 5 1 0 0 1 0 0 0 0 0 0 0 0 nan nan nan nan nan nan nan nan 0 0 0 8 17 1 1 nan nan nan nan nan nan nan nan nan nan nan nan nan nan nan nan nan nan nan nan nan nan nan nan nan nan nan nan nan nan nan nan
CIN
0 0 -0 -0 -0 -0 0 0 0 0 0 0 0 0 0 0 0 0 0 0 0 0 0 0 0 0 -2 -20 -14 -14 -5 -1 -4 -4 -6 -8 -7 -7 -4 -1 -1 0 -1 -11 -11 -16 -17 -16 -16 -16 -17 -17 -17 -17 -15 -9 -9 -6 -6 -6 -6 -5 -2 -1 -1 0 0 0 0 0 0 0 0 0 0 0 0 0 0 0 0 0 0 0 0 -2
0 0 -0 0 0 0 0 0 0 0 0 0 0 0 0 0 0 0 0 0 0 0 0 0 0 0 0 -8 -9 -9 -5 -3 -2 -2 -1 -3 -4 -4 -4 -3 -3 -0 0 -0 -0 -8 -15 -13 -13 -13 -14 -16 -19 -19 -14 -8 -8 -8 -12 -14 -14 -11 -6 -3 -3 -2 -1 0 0 0 0 0 0 0 0 0 0 0 -0 -0 -0 0 0 0 0 0
0 0 0 0 0 0 0 0 0 0 0 0 0 0 0 0 0 0 0 0 0 0 0 0 0 0 0 -0 -6 -6 -3 -1 0 0 0 -0 -3 -3 -4 -3 -3 -1 -0 -4 -4 -9 -10 -7 -7 -7 -9 -15 -16 -16 -9 -8 -8 -12 -14 -17 -17 -18 -13 -7 -7 -6 -5 -4 -3 -3 -1 -0 -0 -0 -0 -0 -0 -0 -0 -0 -0 -0 0 0 0 0
0 0 0 0 0 0 0 0 0 0 0 0 0 0 0 0 0 0 0 0 0 0 0 0 0 0 0 -0 -0 -0 0 0 0 0 0 -1 -2 -2 -2 -2 -2 -1 -1 -0 -0 -2 -4 -2 -2 -2 -2 -0 -1 -1 -4 -8 -8 -14 -18 -23 -23 -22 -20 -16 -16 -12 -10 -9 -6 -6 -4 -3 -3 -3 -2 -1 -0 -0 0 0 0 0 -1 -0 -0 0
-1 0 0 0 0 0 0 0 0 0 0 0 0 0 0 0 0 0 0 0 0 0 0 0 0 0 0 0 0 0 0 0 -1 -1 -1 -1 -0 -0 -0 -1 -1 -0 0 0 0 0 -1 -3 -3 -2 -2 -2 -5 -5 -9 -13 -13 -16 -22 -24 -24 -28 -24 -24 -24 -21 -20 -15 -12 -12 -9 -7 -7 -7 -4 -2 -1 -1 -0 0 0 0 -2 -2 -2 0
0 0 0 0 0 0 0 0 0 0 0 0 0 0 0 0 0 0 0 0 0 0 0 0 0 0 0 0 0 0 -2 -5 -3 -3 -0 0 -0 -0 -1 -1 -1 -0 0 0 0 -1 -2 -4 -4 -6 -7 -6 -8 -8 -12 -15 -15 -20 -27 -31 -31 -30 -30 -29 -29 -29 -27 -23 -17 -17 -12 -8 -6 -6 -4 -2 -1 -1 -0 0 0 -0 -2 -3 -3 -1
0 0 0 0 0 0 0 0 0 0 0 0 0 0 -0 -6 -0 -0 0 0 0 0 0 0 0 0 0 0 0 0 -5 -6 -3 -3 -0 0 0 0 -1 -3 -3 -4 -4 -4 -4 -3 -3 -3 -3 -4 -6 -7 -9 -9 -12 -16 -16 -21 -29 -34 -34 -32 -31 -29 -29 -32 -30 -28 nan nan nan -11 -6 -6 -3 -3 -2 -2 -1 -0 -0 -0 -2 -4 -4 -1
0 0 0 0 0 0 0 0 0 0 0 0 0 0 0 0 0 0 -7 -8 -8 -0 0 0 0 0 0 0 0 0 0 0 0 0 0 0 -1 -1 -3 -2 -2 -1 -1 -2 -2 -3 -5 -6 -6 -6 -7 -8 -9 -9 -10 -13 -13 -19 -33 -56 -56 -57 -25 -21 -21 -20 -20 -22 -25 -25 -26 -22 -17 -17 -10 -5 -2 -2 -3 -2 -2 -1 -2 -2 -2 -2
0 0 0 0 0 0 0 0 0 0 -9 -9 -0 -0 0 0 0 0 0 0 0 0 0 0 0 0 0 0 0 0 0 0 0 0 0 0 -10 -10 -7 -3 -3 0 0 0 0 -1 -2 -4 -4 -5 -6 -7 -7 -7 -9 -13 -13 -32 -51 -70 -70 -81 nan -23 -23 -19 -15 -17 -19 -19 -21 -21 -18 -18 -15 -12 -8 -8 -5 -2 -2 -2 -2 -2 -2 -1
0 0 0 0 0 0 -0 0 0 0 -0 -8 -7 -7 -5 0 0 0 0 0 0 0 0 0 0 0 0 0 0 0 0 0 0 0 0 -7 -2 -2 -8 -8 -8 -3 0 0 0 0 -0 -2 -2 -3 -6 -19 -18 -18 -13 -31 -31 -50 -79 nan nan nan nan nan nan -22 -16 -12 -12 -12 -14 -15 -15 -15 -15 -14 nan nan -10 -7 -7 -2 -1 -1 -1 -1
0 0 0 0 0 0 -7 -4 -0 -0 -0 -0 0 0 0 0 -0 -0 0 0 0 0 0 0 0 0 0 0 0 0 0 0 0 0 0 -12 -7 -7 -4 -5 -5 -3 -2 -1 -1 -2 -5 -5 -5 -5 -7 -10 -20 -20 -27 -51 -51 -82 nan nan nan nan nan nan nan nan nan -14 -9 -9 -10 -10 -10 -10 -11 -13 -14 -14 nan nan nan -5 -1 -1 -1 -1
0 -0 -0 -0 -0 0 -1 -2 -7 -7 -3 0 0 0 0 0 -13 -13 0 0 0 0 0 -0 -0 -9 0 0 0 0 0 0 0 0 0 -9 -3 -3 -0 0 0 -0 0 0 0 -3 -1 -0 -0 -5 -7 -8 -12 -12 -20 -63 -63 nan nan nan nan nan nan nan nan nan nan nan nan nan -7 -7 -8 -8 -8 -10 -13 -13 nan nan nan nan -1 -1 -1 -0
-5 -4 -6 -0 -0 -0 0 0 -7 -7 -2 -0 0 0 0 0 -0 -0 -8 0 0 0 0 0 0 -1 -4 -5 0 0 0 0 0 0 0 0 0 0 0 0 0 0 -0 0 0 -0 0 0 0 -0 -2 -4 -9 -9 -18 nan nan nan nan nan nan nan nan nan nan nan nan nan nan nan -8 -6 -6 -6 -6 -8 -11 -11 nan nan nan nan -5 -1 -1 -1
-5 -10 -8 -3 -3 -0 -2 -5 -1 -1 -1 -0 0 0 0 0 0 0 -0 0 0 0 0 -0 -0 -4 -1 -0 -0 -0 0 0 0 0 0 -0 -3 -3 -6 -1 -1 -0 -5 -10 -10 -17 -8 -6 -6 -3 -3 -3 -3 -3 -8 -16 -16 -39 nan nan nan nan nan nan nan nan nan nan nan nan nan -6 -5 -5 -5 -5 -8 -8 -14 nan nan nan nan -8 -8 -2
0 -0 -3 -0 -0 -4 -4 -2 -3 -3 -0 0 0 0 0 0 0 0 -3 -1 -1 0 -3 -5 -5 -0 -0 0 -0 -0 0 0 0 0 0 -2 -2 -2 0 -1 -1 -4 nan nan nan nan nan -14 -14 -5 -5 -4 -7 -7 -7 -4 -4 -12 nan nan nan nan nan nan nan nan nan -12 -11 -11 -8 -7 -5 -5 -4 -4 -6 -6 -13 nan nan nan nan nan nan nan
-3 0 0 -2 -2 -3 -3 -0 -0 -0 -0 0 0 0 0 -1 -0 -0 -1 -1 -1 -1 -2 -1 -1 -1 0 0 0 0 0 0 0 0 -1 -1 0 0 0 -0 -0 0 0 nan nan nan nan -9 -9 -6 -3 -6 -13 -13 -13 -7 -7 -11 -17 nan nan nan nan nan nan nan -11 -9 -8 -8 -8 -7 -6 -6 -4 -3 -5 -5 -11 nan nan nan nan nan nan nan
-6 -4 -3 -0 -0 -1 -0 0 0 0 0 0 0 0 -3 -1 -2 -2 -2 -0 -0 -0 0 -0 -0 -0 -0 0 -0 -0 -9 -3 -0 -0 -0 0 0 0 -17 -4 -4 0 0 0 0 0 -4 -3 -3 -2 -2 -8 -13 -13 -12 -11 -11 -12 -14 nan nan nan nan -12 -12 -11 -9 -7 -7 -7 -6 -6 -5 -5 -4 -4 -5 -5 -9 nan nan nan nan nan nan nan
-2 -1 -3 -0 -0 0 0 0 0 0 -1 0 -0 -0 -1 -2 -1 -1 0 0 0 0 0 0 0 0 0 -1 -2 -2 -9 -3 -3 -3 -0 0 -3 -3 -22 -15 -15 -6 -3 -0 -0 0 -3 0 0 0 -3 -7 -11 -11 -12 -12 -12 -13 -14 -14 -14 -14 -14 -12 -12 -11 -9 -7 -6 -6 -6 -6 -6 -6 -5 -4 -5 -5 -7 nan nan nan nan nan nan nan
-0 -0 -2 -2 -2 0 0 0 0 0 0 -2 -4 -4 -1 -0 0 0 0 0 0 0 0 0 0 -0 -0 -2 0 0 -5 -12 -2 -2 -2 -0 -0 -0 -9 -11 -11 -9 -9 -4 -4 -6 -4 -5 -5 -10 -6 -7 -8 -8 -11 -11 -11 -11 -12 -12 -12 -12 -12 -12 -12 -9 -7 -6 -6 -6 -6 -6 -6 -6 -6 -5 -5 -5 -7 nan nan nan nan nan nan nan
-1 -0 0 0 0 0 0 0 0 0 -1 -2 -0 -0 -0 0 0 0 0 0 0 -0 -0 -1 -1 -0 0 0 0 0 0 0 -0 -0 -0 -1 0 0 0 -4 -4 0 -3 -1 -1 -2 0 0 0 -3 -11 -9 -8 -8 -7 -6 -6 -8 -9 -10 -10 -10 -9 -8 -8 -6 -5 -4 -4 -4 -5 -5 -6 -6 -6 -5 -5 -5 -7 nan nan nan nan nan nan nan
-0 0 0 0 0 0 -0 -0 -0 -0 -2 -0 0 0 -0 -0 -0 -0 -1 -1 -1 -1 -2 -1 -1 0 0 0 0 0 0 0 0 0 -1 -0 0 0 0 -1 -1 -2 0 -0 -0 -0 0 0 0 -7 -5 -2 -1 -1 -4 -7 -7 -8 -7 -7 -7 -5 -6 -5 -5 -4 -3 -2 -2 -2 -3 -4 -5 -5 -5 -5 -6 -6 -8 nan nan nan nan nan nan nan
0 0 0 0 0 -0 0 -3 -3 -3 0 0 0 0 -0 -1 -2 -2 -3 -2 -2 0 0 0 0 0 0 0 0 0 -0 0 0 0 -2 -1 0 0 0 0 0 -0 -0 0 0 -0 -4 -5 -5 -1 -1 -2 -5 -5 -7 -8 -8 -5 -5 -4 -4 -3 -3 -3 -3 -3 -2 -1 -1 -1 -1 -2 -3 -3 -4 -5 -6 -6 nan nan nan nan nan nan nan nan
0 0 0 0 0 -1 -5 -5 -0 -0 0 0 0 0 -1 -2 -2 -2 -2 -0 -0 -0 0 0 0 0 0 0 0 0 0 0 0 0 -1 -0 0 0 0 -0 -0 -0 -0 -0 -0 -0 -1 -2 -2 -0 -3 -10 -11 -11 nan nan nan -8 -5 -4 -4 -2 -2 -2 -2 -1 -0 0 0 0 0 -1 -2 -2 -3 -5 -9 -9 nan nan nan nan nan nan nan nan
0 -1 -0 0 0 -6 -7 -1 0 0 0 0 0 0 -2 -4 -2 -2 -2 -2 -2 -3 -2 -1 -1 -1 -0 0 0 0 0 0 -6 -6 0 0 0 0 -1 -3 -3 -1 -0 -6 -6 -7 0 -2 -2 -7 nan nan nan nan nan nan nan nan nan nan nan nan nan -1 -1 -1 0 0 0 0 0 -0 -1 -1 -2 -5 -11 -11 nan nan nan nan nan nan nan nan
-0 -1 -0 -4 -4 -6 -3 -0 0 0 0 0 0 0 -3 -2 -1 -1 -1 -2 -2 -2 -2 -1 -1 -1 -1 0 0 0 -2 -2 -0 -0 -1 -0 -0 -0 0 0 0 -0 nan nan nan -6 -4 -2 -2 -6 nan nan nan nan nan nan nan nan nan nan nan nan 0 0 0 0 0 0 0 0 0 0 -0 -0 -2 -4 -9 -9 nan nan nan nan nan nan nan nan
0 0 0 0 0 0 0 0 0 0 0 -0 -9 -9 -4 -1 -0 -0 -1 -2 -2 -1 -0 -0 -0 -1 -2 -3 -1 -1 -1 -4 -1 -1 nan 0 0 0 0 0 0 0 0 -0 -0 -2 -1 0 0 0 -0 nan nan nan nan nan nan nan nan 0 0 0 0 0 0 0 0 0 0 0 0 0 0 0 -1 -3 -6 -6 nan nan nan nan nan nan nan nan
0 0 0 0 0 0 0 0 0 0 0 0 -9 -9 -5 -1 -0 -0 -0 -0 -0 -1 -0 -1 -1 -0 -1 -2 0 0 0 0 0 0 0 0 0 0 0 0 0 0 0 0 0 0 0 0 0 0 0 nan nan nan nan nan nan 0 0 0 0 0 0 0 0 0 0 0 0 0 0 0 0 0 -1 -2 -3 -3 -3 -3 -3 nan nan nan nan nan
0 0 0 0 0 0 0 0 0 0 0 0 0 0 0 -1 -0 -0 0 0 0 -1 -1 -0 -0 0 0 0 0 0 0 0 0 0 0 0 0 0 0 0 0 0 0 -0 -0 -0 0 0 0 0 -0 nan nan nan nan 0 0 0 0 0 0 0 0 0 0 0 0 0 0 0 0 0 0 0 -0 -0 -0 -0 -0 -2 -2 nan nan nan nan nan
0 0 0 0 0 0 0 0 0 0 0 0 0 0 0 -2 -0 -0 0 -0 -0 -1 -1 -0 -0 -0 0 0 -0 -0 0 0 0 0 0 0 0 0 0 -5 -5 -0 -0 -0 -0 0 0 -0 -0 -1 nan nan nan nan 0 0 0 0 0 0 0 0 0 0 0 0 0 0 0 0 0 0 0 0 0 0 -0 -0 -2 nan nan nan nan nan nan nan
0 0 0 0 0 0 0 0 0 0 0 0 0 0 0 -2 -1 -1 -1 -1 -1 -0 -0 0 0 0 0 0 0 0 0 0 0 0 0 0 0 0 -0 -1 -1 0 0 0 0 0 0 -5 -5 nan nan nan 0 0 0 0 0 0 0 0 0 0 0 0 0 0 0 0 0 0 0 0 0 0 0 -0 -3 -3 nan nan nan nan nan nan nan nan
0 0 0 0 0 0 0 0 0 0 0 0 0 0 0 -4 -4 -4 -2 -0 -0 0 -0 0 0 0 0 0 0 0 0 0 0 0 -0 0 0 0 0 0 0 0 0 -0 -0 0 0 -12 -12 nan 0 0 0 0 0 0 0 0 0 0 0 0 0 0 0 -0 -0 0 0 0 0 0 0 0 -1 nan nan nan nan nan nan nan nan nan nan nan
0 0 0 0 0 0 0 0 -0 -0 -2 0 0 0 0 -2 -3 -3 -2 -1 -1 -1 -1 0 0 0 0 0 0 0 0 0 0 0 -2 -1 0 0 0 0 0 0 -0 -0 -0 -0 0 0 0 0 nan nan nan nan nan nan nan 0 0 0 0 0 0 0 0 0 -0 0 nan nan nan nan nan nan nan nan -0 -0 -0 -0 -0 nan nan nan nan nan
0 0 0 0 0 0 0 0 -3 -3 -1 -0 -0 -0 -3 -3 -1 -1 -3 -2 -2 -2 -1 -0 -0 0 0 0 0 0 -0 -1 0 0 -0 -1 0 0 0 0 0 0 0 0 0 0 0 0 0 0 0 0 nan nan nan nan nan 0 0 0 0 0 0 0 0 -0 -0 -0 -0 -0 -0 -0 -0 -0 -0 0 0 0 0 0 0 nan nan nan nan nan
0 0 0 0 0 0 0 -2 -2 -2 -1 -2 -3 -3 -6 -7 -9 -9 -7 -4 -4 -1 -2 -1 -1 0 0 0 0 0 0 0 0 0 -0 -0 0 0 0 0 0 0 0 0 0 0 0 0 0 0 0 0 nan nan nan nan nan nan -0 0 0 0 0 -0 -0 -0 -0 nan nan nan -0 -0 0 0 0 0 0 0 0 0 0 -0 nan nan nan nan
0 0 0 0 0 -0 -2 -1 -1 -1 -1 -5 -7 -7 -9 -10 -11 -11 -5 -3 -3 -3 -3 -3 -3 -0 -0 0 0 0 0 0 0 0 0 -0 -0 -0 0 0 0 0 0 0 0 0 0 0 0 0 0 0 nan nan nan nan nan nan -0 0 0 0 0 nan nan nan nan nan nan nan -1 -0 -0 -0 0 0 0 0 0 0 0 0 -0 -1 -1 nan
0 0 0 0 0 0 0 0 0 0 -0 -4 -12 -12 -11 -8 -5 -5 -3 -3 -3 -3 -3 -2 -2 -1 -2 -0 -0 -0 0 0 0 0 0 -1 -0 -0 0 0 0 0 0 0 0 0 0 0 0 0 0 0 nan nan nan nan nan nan nan -0 -0 0 -0 nan nan nan nan nan nan nan -1 -0 -0 -0 -0 0 0 0 0 0 0 0 0 0 0 0
0 0 0 0 0 0 0 0 0 0 -1 -4 -7 -7 -6 -5 -2 -2 -5 -9 -9 -6 -2 -1 -1 -2 -0 -3 -2 -2 -0 -0 -0 -0 0 -1 -1 -1 0 0 0 0 0 0 0 0 0 0 0 0 0 0 nan nan nan nan nan nan nan nan nan -0 nan nan nan nan nan nan nan nan -1 -0 -0 -0 0 0 0 0 0 0 0 0 0 0 0 0
0 0 0 0 0 0 0 0 0 0 -0 -1 -3 -3 -3 -2 -1 -1 -3 -9 -9 -8 -3 -1 -1 -2 -0 -0 -4 -4 -2 -1 -1 -1 -1 -1 -0 -0 0 0 0 0 0 0 0 0 0 0 0 0 0 -1 nan nan nan nan nan nan nan nan nan nan nan nan nan nan nan -1 -0 -0 -0 -0 0 0 0 0 0 0 0 0 0 0 0 0 0 0
0 0 0 0 0 0 0 0 -0 -0 0 -0 -1 -1 -2 -1 -2 -2 -4 -6 -6 -3 -0 -1 -1 -1 -4 -4 -0 -0 -0 -1 -2 -2 -2 -0 0 0 0 0 0 0 0 0 0 0 0 0 0 0 0 nan nan nan nan nan nan nan nan nan nan nan nan nan nan -0 nan -0 -0 -0 -0 -0 0 0 0 0 0 0 0 0 0 0 0 0 0 0
0 0 0 0 0 0 0 0 -0 -0 -0 -0 -2 -2 -2 -2 -4 -4 -7 -2 -2 -1 -1 -1 -1 -0 -0 -0 0 0 -0 -3 -1 -1 -1 0 0 0 0 0 0 0 0 0 0 0 0 0 0 0 0 -5 nan nan nan nan nan nan 0 nan nan nan nan nan nan nan -0 -0 -0 -0 0 -0 0 0 0 0 -0 -0 -0 -0 -0 0 0 -0 -0 -0
0 0 0 0 0 0 0 0 0 0 0 -1 -2 -2 -1 -2 -7 -7 -2 -2 -2 -1 -1 -0 -0 -0 0 0 -0 -0 -1 -3 -0 -0 -0 0 0 0 0 0 0 0 0 0 0 0 0 0 0 0 0 -2 nan nan nan nan nan 0 0 nan nan nan nan nan nan nan nan nan 0 0 0 0 0 0 0 0 0 0 -0 0 0 0 -0 -0 -0 -1
0 0 0 0 0 -0 -0 -0 0 0 -0 -3 -1 -1 -1 -2 -4 -4 -2 -0 -0 -0 0 -0 -0 0 0 0 0 0 -4 nan -0 -0 0 0 0 0 0 0 0 0 0 0 0 0 0 0 0 0 0 nan nan nan nan 0 0 0 nan nan nan nan nan nan nan nan nan nan 0 0 0 nan nan nan nan nan 0 0 -0 -0 -0 0 0 -0 -0 -1
0 0 0 -0 -0 -0 -0 -0 -0 -0 -0 -1 -1 -1 -2 -3 -1 -1 -0 -0 -0 0 0 -0 -0 0 0 0 0 0 -1 -0 0 0 0 0 0 0 0 0 0 0 0 0 0 0 0 0 0 0 nan nan nan nan 0 0 0 0 nan 0 0 nan nan nan nan nan nan nan nan nan nan nan nan nan nan nan nan nan -0 0 0 0 0 -0 -0 -0
0 0 -0 -0 -0 -0 -0 -0 -0 -0 -1 -2 -1 -1 -3 -4 -1 -1 -0 0 0 0 -0 -0 -0 0 0 0 0 0 0 0 0 0 0 0 0 0 0 0 0 0 0 0 0 0 0 nan nan nan nan nan nan nan nan nan nan nan 0 0 0 nan nan nan nan nan nan nan nan nan nan nan nan nan nan nan nan nan nan nan nan nan 0 nan nan nan
0 -0 -0 0 0 0 0 -0 -0 -0 -1 -1 -1 -1 -3 -3 -0 -0 -2 -0 -0 0 -0 -0 -0 0 0 0 0 0 0 0 0 0 0 0 0 0 0 0 0 0 0 0 0 0 nan nan nan nan nan nan 0 0 nan nan nan nan 0 nan nan nan nan nan nan nan nan nan nan nan nan nan nan nan nan nan nan nan nan nan nan nan nan nan nan nan
-0 0 -0 -0 -0 -0 0 -0 -1 -1 -1 -1 -0 -0 -2 -2 -2 -2 -0 -0 -0 -0 0 -0 -0 0 0 0 0 0 0 0 0 0 nan 0 0 0 0 0 0 0 0 0 0 0 nan nan nan 0 0 nan nan nan nan nan nan nan nan nan nan nan nan nan nan nan nan nan nan nan nan nan nan nan nan nan nan nan nan nan nan nan nan nan nan nan
-0 0 -0 -1 -1 -1 -1 -1 -1 -1 -1 -0 -0 -0 -1 -2 -1 -1 0 -0 -0 -0 0 0 0 0 0 0 0 0 0 0 0 0 nan nan nan nan nan 0 0 0 0 0 0 0 0 0 0 nan nan nan nan nan nan nan nan nan nan nan nan nan nan nan nan nan nan nan nan nan nan nan nan nan nan nan nan nan nan nan nan nan nan nan nan nan
0 0 -0 -1 -1 -1 -1 -1 0 0 -0 -2 -2 -2 -1 -1 -0 -0 -0 0 0 0 0 0 0 0 0 0 0 0 0 0 0 0 0 nan nan nan nan nan nan 0 0 0 0 0 0 0 0 nan nan nan nan nan nan nan nan nan nan nan nan nan nan nan nan nan nan nan nan nan nan nan nan nan nan nan nan nan nan nan nan nan nan nan nan nan
0 -0 -0 -0 -0 0 -0 -1 -1 -1 -2 -2 -1 -1 -1 0 0 0 0 0 0 0 0 0 0 0 0 0 0 0 0 0 0 0 0 0 0 0 nan nan nan nan -0 0 0 0 0 0 0 0 nan nan nan nan nan nan nan nan nan nan nan nan nan nan nan nan nan nan nan nan nan nan nan nan nan nan nan nan nan nan nan nan nan nan nan nan
-0 0 -0 -1 -1 -1 -0 -0 0 0 0 0 -0 -0 -2 -2 -1 -1 -0 0 0 0 0 0 0 0 0 0 0 0 0 0 0 0 0 0 0 0 nan nan nan nan nan nan nan nan nan 0 0 0 0 0 nan nan nan nan nan nan nan nan nan nan nan nan nan nan nan nan nan nan nan nan nan nan nan nan nan nan nan nan nan nan nan nan nan nan
-0 -0 -0 -2 -2 -1 -0 -0 -0 -0 -0 -0 -1 -1 -2 -2 -1 -1 -1 -0 -0 -0 0 0 0 0 0 0 0 0 0 0 0 0 0 0 0 0 0 nan nan nan nan nan nan nan nan 0 0 0 0 0 0 0 nan nan nan nan nan nan nan nan nan nan nan nan nan nan nan nan nan nan nan nan nan nan nan nan nan nan nan nan nan nan nan nan
Wind_Speed
11 11 12 14 15 14 14 16 18 18 17 15 15 15 15 15 16 17 19 19 19 19 18 17 18 18 19 20 22 23 24 25 26 27 28 27 26 26 26 27 29 30 30 29 28 27 26 26 25 24 23 23 23 23 24 25 25 25 26 26 27 27 28 29 29 30 30 30 30 30 30 30 29 29 29 29 29 29 29 30 31 32 33 33 32 31
12 12 12 15 16 16 14 17 18 18 17 17 16 16 16 17 16 15 15 17 18 17 16 17 17 18 20 20 21 23 25 26 28 29 29 29 28 27 26 27 28 29 30 29 28 27 26 25 25 25 24 23 23 23 23 24 24 24 25 25 25 26 26 27 28 29 29 29 30 30 30 30 29 29 29 29 29 29 29 29 31 32 34 35 34 33
12 12 11 13 15 15 14 16 17 17 18 18 17 17 19 20 17 15 13 14 15 15 15 15 16 17 19 19 21 24 25 27 29 30 30 30 29 28 27 27 28 28 28 27 26 25 24 25 25 25 25 24 24 24 24 24 24 24 24 24 24 24 25 25 26 27 27 28 28 29 29 29 29 29 28 28 28 28 29 29 30 32 34 35 36 36
11 12 12 11 12 14 15 15 16 16 16 16 18 19 21 19 16 14 13 14 14 14 15 16 16 17 16 17 19 22 25 27 28 29 29 28 28 27 27 27 27 27 27 26 25 25 25 25 26 26 26 25 25 24 24 24 23 23 23 23 23 23 23 24 24 25 26 26 27 28 28 28 28 28 27 28 28 29 29 29 30 30 32 34 36 37
11 12 12 11 12 13 14 15 15 15 14 15 16 17 18 16 14 14 14 15 15 15 14 15 15 16 15 14 17 20 24 26 26 26 26 26 26 26 26 26 26 26 26 26 25 25 25 25 26 26 26 26 25 24 23 23 23 22 22 22 22 22 22 23 23 23 24 25 26 26 27 27 27 27 27 28 29 29 30 30 30 30 30 32 35 37
11 11 11 11 11 11 12 12 12 13 13 13 14 15 15 14 14 14 14 14 14 14 13 13 14 15 15 15 17 20 22 23 24 24 25 25 26 26 26 26 26 26 26 26 25 25 25 25 26 26 26 26 25 24 23 22 22 21 21 21 21 21 21 22 22 22 23 24 25 26 27 27 27 27 28 28 29 30 30 31 30 30 30 31 33 36
11 10 10 10 10 10 10 11 11 11 11 11 12 12 13 13 13 14 15 14 14 13 13 13 13 14 15 16 17 18 19 20 21 23 24 25 26 26 26 26 26 26 26 26 26 26 26 26 26 26 26 26 25 24 23 22 21 21 20 20 20 20 20 20 21 22 22 23 24 25 26 27 27 27 28 28 29 30 31 31 31 30 29 30 32 35
11 11 10 10 10 10 10 10 10 11 12 11 12 12 13 13 13 14 15 15 14 13 13 13 12 13 13 14 15 15 15 16 17 18 20 21 23 23 24 25 26 27 27 28 28 28 27 27 27 27 26 26 25 24 23 22 21 20 19 18 18 18 19 19 20 21 22 23 23 24 25 26 27 27 27 28 29 29 30 31 31 30 29 29 31 33
11 11 10 10 10 11 10 10 11 11 12 12 12 12 13 14 13 13 13 14 13 12 12 12 12 12 12 12 13 13 14 14 14 15 16 16 16 18 20 22 24 26 28 28 29 29 29 28 28 28 28 27 26 25 24 22 21 19 18 17 17 17 18 19 19 20 21 22 23 23 24 25 26 27 27 27 28 29 29 30 30 30 29 30 31 32
10 11 11 10 10 10 11 11 12 12 13 12 12 12 12 14 14 14 13 13 12 11 10 11 12 12 12 11 11 12 13 15 16 18 18 17 18 19 20 21 22 24 27 28 29 29 29 29 29 29 29 28 27 26 24 23 21 19 17 16 16 16 17 18 19 20 20 21 22 23 24 25 26 26 27 27 28 28 29 29 30 30 30 30 31 32
10 10 11 11 10 10 10 11 11 11 13 13 12 12 12 12 13 13 14 13 12 11 10 10 11 11 11 11 11 11 12 13 14 15 17 18 20 21 22 22 23 24 26 26 27 28 28 28 28 28 28 27 27 25 24 22 20 18 16 15 15 16 17 18 19 20 20 21 21 22 23 24 25 26 27 27 28 28 29 29 29 30 30 31 31 32
10 10 9 10 10 10 10 10 10 10 11 11 11 11 11 11 11 12 13 13 13 12 12 11 10 10 11 11 11 11 11 11 11 11 12 13 15 16 17 18 18 19 20 20 21 22 23 23 24 24 24 24 24 23 22 20 18 16 15 15 15 16 17 18 19 20 20 21 21 22 23 24 25 26 27 27 28 28 29 29 29 29 30 31 31 32
9 9 9 10 10 10 10 10 10 9 9 10 11 11 11 11 10 11 12 13 13 13 12 11 10 10 10 10 10 10 10 11 11 11 10 11 11 11 11 12 11 11 11 11 11 13 16 18 19 19 19 19 19 19 18 16 15 14 14 14 15 16 17 18 19 20 21 21 22 22 23 23 24 25 26 27 28 28 29 29 29 29 29 30 31 31
10 10 10 10 10 10 10 10 10 10 10 10 11 11 11 11 11 11 11 12 12 12 12 12 11 10 10 10 10 10 10 11 11 10 10 10 10 9 8 8 8 8 8 9 10 11 14 15 14 14 15 15 16 16 14 13 13 13 13 14 15 16 18 19 20 21 21 22 22 23 23 24 24 25 26 26 27 28 28 29 29 29 29 29 30 30
11 11 11 11 11 10 9 9 10 11 11 11 11 11 12 12 12 11 11 12 12 12 11 12 12 11 9 9 9 10 10 10 10 10 10 9 8 8 8 8 9 9 10 11 12 13 15 13 12 12 12 14 14 13 12 12 12 13 13 15 16 17 19 20 21 21 22 22 22 23 23 24 24 24 25 26 26 27 27 28 28 28 28 29 29 29
11 11 11 12 11 10 9 9 10 11 11 11 11 11 12 12 11 11 11 12 11 11 10 11 11 10 9 8 8 9 9 9 9 8 9 8 7 7 8 10 11 11 11 12 12 13 13 12 12 12 13 14 14 13 12 12 13 14 15 16 18 19 20 21 21 22 22 22 23 23 23 24 24 24 25 25 25 25 26 26 27 27 28 28 28 28
10 10 10 11 11 10 10 10 11 12 12 11 11 11 11 11 11 11 11 11 10 9 9 9 9 8 6 6 6 6 6 7 7 8 9 9 9 9 9 10 11 12 12 12 12 12 11 11 11 12 12 14 14 14 14 14 14 15 16 18 19 20 22 22 22 22 22 23 23 23 23 24 24 24 24 24 24 24 25 25 26 26 27 27 28 28
10 10 10 10 10 11 11 11 11 11 11 11 11 11 11 11 10 10 11 11 11 10 9 9 8 7 6 5 5 4 5 6 7 8 10 11 11 10 9 10 11 11 12 12 12 11 11 12 12 12 13 16 16 16 16 16 16 17 18 19 21 22 23 23 23 23 23 23 23 23 24 24 24 24 24 24 24 24 24 24 25 25 26 27 27 28
10 10 10 10 10 11 11 11 11 11 11 11 11 10 10 10 10 11 12 11 10 10 9 9 8 7 7 7 7 8 8 9 10 10 11 12 12 11 10 10 10 11 11 12 12 11 11 11 13 15 17 18 19 18 18 17 17 18 19 20 21 22 23 23 23 23 23 23 24 24 24 24 24 24 24 24 24 24 24 24 24 25 25 26 27 27
11 11 11 11 11 11 12 12 12 12 12 11 11 10 10 10 11 10 10 9 9 9 9 9 9 9 9 10 11 11 10 10 11 11 12 12 12 12 10 10 10 11 12 12 11 11 11 11 12 14 16 17 17 17 17 17 18 18 19 21 22 22 22 22 22 23 23 23 24 24 25 25 25 25 25 24 24 24 23 23 23 23 24 25 25 26
12 13 12 12 11 11 11 12 13 14 14 13 12 11 10 10 9 9 8 9 9 10 10 10 10 11 10 11 12 12 11 11 11 11 10 10 10 10 9 9 10 11 12 11 11 10 10 11 11 10 11 14 15 15 16 16 17 18 19 20 21 21 22 22 22 23 24 24 25 25 25 25 25 25 25 24 24 23 22 22 22 22 22 23 24 25
12 13 14 14 13 12 12 14 15 15 15 14 12 10 8 8 9 10 10 10 10 11 11 11 11 11 11 12 12 12 12 11 11 10 8 9 10 10 8 8 8 9 10 10 10 9 8 7 6 7 9 12 13 14 15 16 17 19 20 20 21 22 22 23 23 24 25 25 26 26 26 25 25 24 24 23 23 22 21 21 21 21 21 22 23 24
13 13 14 14 14 14 14 14 13 13 13 12 11 10 9 9 10 10 10 10 11 11 11 11 11 12 12 12 12 12 12 12 11 9 7 8 9 8 6 5 6 7 8 7 7 6 6 6 6 7 9 12 13 14 16 17 18 19 20 22 23 23 24 24 25 25 26 26 27 26 26 25 24 23 23 22 21 21 20 20 20 20 21 22 23 24
13 13 13 13 13 13 14 12 11 11 11 11 11 10 10 10 10 10 10 10 10 10 10 11 11 12 12 12 12 12 11 10 8 6 5 6 6 6 6 6 7 8 9 9 9 9 9 8 7 6 7 10 12 14 15 17 18 19 21 22 24 25 25 26 26 27 27 27 27 27 27 25 24 23 22 21 20 20 19 20 20 21 22 23 25 26
14 14 13 14 15 17 18 16 15 15 14 13 12 11 11 12 12 12 11 10 10 10 10 10 10 10 10 11 11 10 8 7 5 5 5 6 8 9 9 8 9 10 11 11 10 9 9 8 7 6 5 7 10 13 14 16 18 20 21 23 24 25 26 27 27 28 28 28 28 28 27 26 25 24 22 21 21 20 20 21 22 23 25 26 27 28
20 20 20 23 25 28 29 29 27 25 24 19 15 11 10 11 11 11 10 10 10 9 9 10 10 10 10 9 9 9 8 6 6 5 5 6 7 9 9 9 9 10 11 10 10 9 8 9 8 7 6 6 8 11 13 15 17 19 21 23 24 25 26 27 28 28 28 28 28 28 28 27 26 25 23 23 22 22 22 23 24 25 25 26 26 26
28 29 31 32 32 31 31 30 29 29 29 26 21 17 13 11 10 10 11 10 10 9 10 11 11 11 10 9 9 8 8 6 5 5 6 6 7 9 9 8 8 9 10 9 8 7 8 9 9 8 7 6 6 8 11 14 16 18 20 22 24 25 26 27 28 29 29 29 28 28 28 27 26 25 25 24 24 24 24 24 22 20 18 17 18 18
29 29 29 29 29 28 28 28 28 28 27 27 26 24 17 11 9 10 11 10 10 10 11 11 11 11 10 9 8 8 7 6 6 6 6 6 7 8 8 6 6 6 7 7 7 8 9 9 9 8 6 5 5 6 9 11 14 16 18 21 22 24 26 27 28 29 29 28 28 27 27 27 26 26 26 25 25 23 19 16 13 11 9 7 6 7
26 27 27 27 26 26 26 25 25 25 25 25 25 22 16 10 8 9 10 10 10 11 11 11 11 10 9 9 9 9 9 7 6 6 6 6 6 7 6 5 5 5 6 7 8 9 9 8 6 5 4 4 4 5 6 8 10 12 14 18 20 22 24 26 27 28 28 28 27 27 27 26 27 26 25 22 19 15 12 12 12 11 9 9 9 9
20 21 21 22 22 22 21 20 19 20 22 23 22 20 14 9 8 8 9 9 10 11 11 11 10 10 10 10 10 10 8 6 5 5 5 5 6 6 6 7 7 7 6 6 7 7 7 4 2 1 2 3 3 4 4 6 7 8 9 13 16 18 21 22 23 24 25 25 25 25 26 25 24 22 18 14 13 14 17 20 18 13 10 10 10 10
18 17 16 16 16 16 15 15 15 16 17 18 17 15 12 9 7 7 8 8 9 10 10 11 11 10 10 9 9 8 7 5 5 5 5 5 6 7 8 8 8 7 6 5 5 6 6 3 1 0 1 2 3 3 4 4 5 6 7 9 11 13 15 15 15 16 17 18 19 19 19 17 15 13 13 15 19 22 24 23 19 15 11 11 11 11
16 15 14 14 13 13 12 12 12 12 12 11 11 10 10 9 8 7 8 8 8 9 10 11 11 11 11 10 9 8 7 6 6 6 6 5 6 7 7 7 7 7 5 5 5 6 6 5 2 1 1 2 2 3 3 4 5 5 6 8 9 10 11 9 7 6 5 6 6 7 7 9 11 15 18 22 24 25 25 24 20 16 13 12 12 12
15 13 12 13 12 12 11 11 11 10 9 8 8 8 8 8 8 8 8 7 7 8 10 11 11 11 11 11 10 10 8 7 7 7 7 5 5 6 6 7 7 7 6 6 6 6 6 6 6 5 4 4 3 2 3 3 4 5 6 7 8 9 9 7 5 4 6 4 6 9 12 15 18 21 23 24 24 24 24 23 21 18 15 13 13 13
14 14 13 13 12 12 11 11 10 9 8 8 8 8 8 7 8 8 8 7 7 8 9 10 10 11 11 11 10 10 9 8 8 8 7 6 5 6 6 7 7 7 7 6 6 6 6 7 7 7 6 4 3 2 2 3 4 4 5 6 7 8 8 6 4 5 7 8 9 11 13 15 18 20 21 21 22 22 22 22 21 20 18 15 14 14
13 13 13 12 12 12 11 11 10 9 9 9 9 9 8 8 8 8 9 8 8 8 9 9 9 9 10 10 10 10 10 8 8 8 8 7 6 6 7 7 7 6 6 7 6 6 6 8 8 7 6 5 3 2 1 2 3 4 4 5 6 6 6 5 4 4 6 7 8 8 9 10 12 13 15 17 19 20 21 22 21 21 20 18 16 14
13 13 13 12 12 12 11 11 11 10 10 9 9 9 9 8 9 9 9 9 9 9 9 9 9 9 9 10 11 11 11 10 9 10 9 8 7 7 6 6 6 6 7 8 7 7 7 8 8 8 8 6 4 2 1 2 2 3 4 5 5 6 5 4 4 4 6 7 7 8 8 8 9 10 12 17 20 21 22 22 22 22 21 20 18 16
12 12 12 12 11 11 12 11 10 10 10 10 10 10 10 9 9 10 10 10 10 10 10 11 10 10 11 11 11 11 11 10 10 11 11 10 9 7 6 6 6 7 7 8 8 8 8 8 8 8 7 6 3 1 1 2 2 2 3 4 5 5 5 5 5 5 6 7 7 8 8 9 9 11 13 17 19 20 21 22 22 22 22 21 20 18
12 12 12 11 11 11 11 11 11 10 10 11 11 11 11 11 11 11 11 11 11 11 11 10 10 12 14 15 14 14 13 13 13 14 13 11 8 7 6 6 7 8 8 8 8 8 8 8 8 7 6 4 2 1 1 1 1 2 2 3 4 4 5 5 5 5 5 7 8 9 9 9 9 10 11 12 12 12 13 14 16 18 20 20 20 20
12 12 12 12 11 11 11 11 11 11 11 12 12 12 11 11 12 11 11 11 11 11 11 11 11 11 12 13 14 15 14 14 14 14 12 9 6 5 6 7 8 8 8 8 8 9 9 8 8 7 5 3 1 1 1 1 1 0 0 1 3 4 5 5 5 5 5 6 8 9 9 8 8 8 9 8 9 9 9 10 11 13 14 13 15 17
12 12 12 12 11 11 11 12 12 12 12 13 13 13 11 11 10 10 10 10 10 10 11 11 11 10 10 11 12 12 13 12 12 11 9 6 5 5 5 7 7 8 8 8 8 9 9 9 9 9 7 4 2 2 2 1 1 1 1 1 2 3 5 5 4 4 4 5 6 7 7 7 7 8 8 8 8 8 8 8 8 9 9 9 10 11
12 12 12 12 11 12 12 12 12 13 13 13 12 11 9 9 9 9 9 9 9 9 9 9 9 9 9 9 10 10 11 11 10 9 6 5 6 6 6 6 7 7 8 8 8 9 9 10 10 9 8 5 3 3 2 2 2 2 1 1 1 1 3 4 4 4 4 5 6 6 7 8 8 8 8 8 7 7 7 7 8 8 7 7 7 8
13 13 12 11 11 11 12 12 13 13 13 12 11 10 9 9 9 9 10 10 9 8 8 8 8 8 9 9 9 9 8 7 6 6 5 6 6 7 7 6 6 6 7 8 8 9 9 10 10 9 7 4 3 3 3 2 1 1 2 2 3 3 4 4 4 3 4 5 6 6 8 8 7 7 8 7 7 7 7 8 9 9 8 6 6 6
12 12 12 12 12 12 13 13 13 12 12 11 10 9 9 9 9 10 10 10 10 9 9 8 8 8 9 9 8 7 6 4 4 4 4 5 6 7 7 7 6 6 6 6 7 7 7 7 6 5 4 3 4 4 4 3 3 2 2 2 3 3 3 2 2 3 5 6 6 6 7 7 7 7 7 7 7 7 7 9 9 9 8 7 6 6
12 12 12 12 12 12 12 11 11 11 11 11 11 10 9 9 10 10 10 9 10 9 9 8 8 8 8 8 8 7 5 3 2 3 4 5 6 6 6 6 6 6 6 5 5 4 3 3 3 2 1 2 3 4 4 4 3 3 1 1 1 2 3 2 2 3 5 6 6 6 6 7 7 7 7 7 6 6 7 7 7 7 7 7 7 6
11 11 12 11 11 11 11 12 12 11 11 11 11 10 10 10 10 10 9 9 9 9 8 8 7 7 7 8 7 6 4 2 2 2 3 4 6 6 6 6 5 5 5 4 3 3 2 2 2 1 1 1 3 4 4 4 4 3 3 3 4 4 4 3 4 5 6 6 6 6 6 7 8 8 8 7 7 6 6 7 7 7 6 6 6 6
11 11 12 12 12 12 13 13 12 12 12 11 11 10 10 9 9 9 9 9 9 9 8 7 7 7 7 7 7 5 4 3 3 2 2 3 4 5 5 5 5 4 3 3 3 3 2 2 2 1 2 3 3 4 4 4 4 4 4 4 4 4 4 4 5 5 6 6 6 6 6 7 8 8 8 7 7 6 6 6 6 6 6 6 6 6
12 12 13 12 12 12 12 12 12 12 12 12 11 10 10 9 9 9 9 9 8 8 8 8 7 7 8 7 6 5 4 3 3 3 3 3 4 4 4 4 5 4 4 3 3 3 3 4 3 3 2 3 3 4 4 4 4 4 4 4 4 5 5 4 4 4 5 6 6 5 6 7 8 9 8 7 7 6 6 6 6 5 5 5 5 5
13 13 13 13 12 12 12 12 12 12 12 12 11 10 9 9 10 10 9 9 8 8 8 7 7 7 7 6 4 4 3 3 3 3 4 4 4 4 4 4 4 4 3 3 3 4 5 6 7 6 4 3 3 3 4 4 4 4 4 4 5 5 6 5 4 4 5 5 5 5 5 6 8 8 8 8 7 6 5 5 5 5 4 4 4 5
13 13 13 13 12 12 12 12 12 13 12 12 11 10 9 10 11 11 9 8 8 7 7 7 8 7 6 4 3 3 3 3 3 3 3 4 4 4 4 4 4 3 2 2 3 4 5 7 9 9 8 6 4 4 4 4 4 4 4 4 5 5 6 5 4 4 5 5 5 5 5 5 6 7 8 8 8 6 6 5 5 4 4 3 3 4
12 12 12 12 12 12 13 13 13 13 12 12 11 10 10 9 9 8 8 7 7 7 7 7 7 6 5 3 3 2 3 3 3 3 3 4 4 4 4 4 4 3 2 2 1 2 3 5 7 9 11 10 7 5 4 4 4 4 4 4 4 5 6 5 4 4 5 5 6 6 6 5 5 5 7 8 8 8 6 5 5 4 3 3 3 3
12 12 12 12 12 13 13 13 13 12 12 11 11 10 10 9 9 8 7 7 7 7 7 7 6 5 4 3 2 2 3 3 3 3 4 4 4 4 4 4 4 3 2 2 1 1 1 2 4 6 9 12 11 8 4 3 4 4 4 4 4 4 5 5 5 5 5 5 5 6 6 5 5 5 6 7 8 7 6 6 4 3 3 2 3 3
Wind_Direction
307 310 312 313 311 308 303 306 306 305 304 305 306 306 307 306 304 302 301 299 297 296 295 293 293 293 294 294 294 294 293 293 292 291 289 288 287 286 285 283 282 280 278 276 274 274 273 273 271 269 266 262 260 258 257 256 255 253 252 251 250 249 249 249 249 249 249 249 249 248 247 246 246 246 246 247 247 248 247 246 244 241 239 236 231 226
309 309 308 309 308 305 301 304 304 303 303 303 304 303 303 301 299 297 296 294 293 293 294 294 295 296 297 297 297 296 296 295 294 293 290 288 287 285 283 280 279 278 277 276 276 277 277 277 276 273 269 265 262 260 259 257 256 254 253 251 250 250 249 249 249 249 249 249 249 248 247 246 245 245 244 244 245 245 246 245 244 243 242 240 237 232
306 304 302 303 302 300 298 300 300 299 299 299 299 299 299 298 296 295 294 293 293 293 294 295 297 297 298 298 297 296 294 293 292 290 288 287 285 284 283 281 279 278 278 278 279 281 282 281 279 276 272 268 265 262 260 257 256 254 252 251 250 250 249 248 248 248 248 248 248 247 247 246 245 244 243 242 243 243 244 245 244 243 242 241 239 237
298 296 296 297 295 293 293 295 296 296 296 296 295 295 295 294 293 292 292 293 294 294 294 295 295 295 295 294 292 291 289 288 287 287 287 287 287 288 288 287 285 284 283 282 282 282 283 281 279 276 273 270 266 263 260 257 254 252 251 250 250 250 249 249 248 248 247 247 246 246 245 245 244 243 241 241 241 242 243 244 244 243 242 240 239 237
292 292 294 294 293 291 292 293 294 294 294 293 292 292 292 291 290 291 291 292 292 292 292 292 291 290 288 287 286 285 285 285 287 288 290 291 291 291 291 290 288 286 285 283 281 280 279 278 276 275 272 270 267 263 260 256 254 252 250 250 250 250 250 250 249 248 247 246 245 244 244 243 242 241 240 240 240 241 243 244 245 244 243 241 239 237
291 291 293 292 292 292 294 293 293 293 293 291 291 290 290 290 290 290 290 290 290 289 289 287 286 284 283 282 282 283 285 288 291 293 294 293 293 292 291 289 286 284 283 281 279 278 276 275 273 273 272 270 268 265 262 258 255 252 251 251 251 251 251 251 251 250 249 247 246 244 243 242 241 240 239 239 240 241 242 243 244 245 245 243 240 238
290 290 292 291 291 292 293 293 293 294 294 294 293 292 290 289 289 288 288 289 288 288 286 284 282 280 279 280 283 286 290 293 294 295 294 292 291 290 289 288 286 285 284 283 281 279 277 274 273 272 272 271 270 268 265 261 258 254 252 252 252 252 252 252 252 251 250 248 246 245 243 242 241 240 239 239 239 240 240 242 243 244 245 244 242 240
289 290 292 293 294 295 293 293 294 296 297 297 296 295 294 292 290 288 288 287 285 285 284 282 281 280 281 284 288 291 294 294 293 292 291 290 289 289 289 288 288 287 285 284 283 281 278 276 274 273 273 273 272 271 268 264 261 257 254 253 253 253 254 254 254 253 252 250 248 245 243 242 240 239 238 238 238 238 239 239 240 241 243 243 243 242
290 293 295 296 299 299 298 296 296 297 299 297 296 296 295 294 292 289 287 285 283 282 283 283 284 284 285 288 290 292 291 290 288 288 287 287 288 289 289 289 288 286 284 283 281 280 279 277 275 275 274 274 273 272 270 267 264 260 257 256 255 255 255 255 255 255 254 252 249 247 244 242 241 239 238 238 237 237 237 237 237 238 240 241 242 242
293 297 300 300 300 300 300 299 299 299 298 295 292 291 290 291 290 289 287 285 284 283 283 284 286 287 288 289 289 289 288 286 284 284 284 287 289 290 290 288 286 283 281 280 279 278 277 276 275 274 274 274 274 273 271 269 267 264 261 259 257 257 257 257 257 257 256 254 252 249 246 244 242 240 239 238 237 236 235 235 235 236 237 239 241 242
301 301 301 301 300 299 296 296 296 296 294 291 287 285 283 285 287 289 290 289 288 286 284 283 284 286 288 288 287 286 285 284 284 284 285 288 290 289 288 285 282 280 279 279 278 276 275 275 274 274 274 274 273 272 271 270 268 266 263 261 259 258 259 259 259 259 258 257 254 252 250 247 245 242 240 238 237 235 234 233 233 234 235 237 239 241
303 302 300 299 298 297 294 291 289 289 289 288 287 285 283 284 286 288 288 289 289 288 286 284 282 281 281 283 284 284 283 283 284 287 289 289 288 286 284 282 280 280 280 280 280 280 279 278 277 276 275 274 273 272 270 269 268 266 264 262 261 260 260 261 261 260 260 259 257 256 253 251 248 246 243 240 238 235 233 232 232 232 234 236 238 239
300 299 297 296 294 293 291 289 288 286 286 286 287 288 288 288 287 285 284 284 284 285 284 282 279 276 274 275 277 279 281 282 283 284 284 282 280 279 279 281 284 287 289 290 293 294 289 287 284 281 279 277 275 273 271 269 268 266 264 263 262 262 262 262 262 261 261 260 259 258 257 255 253 250 247 243 240 236 233 232 231 231 232 234 236 238
299 298 295 293 291 289 287 286 286 287 287 287 287 287 287 286 285 282 279 278 277 278 278 277 275 274 272 271 271 273 276 278 279 278 275 273 272 273 278 285 290 294 297 298 297 296 294 291 288 285 282 279 277 276 273 270 268 266 265 264 264 264 264 264 263 263 262 262 261 261 260 258 257 255 252 247 243 238 234 232 231 231 231 233 234 236
300 298 293 290 288 286 285 286 287 288 288 287 285 284 283 281 279 277 274 273 273 274 275 273 273 272 270 269 269 269 271 273 274 274 273 271 271 273 280 288 291 293 295 295 293 291 289 287 284 282 280 277 275 272 269 267 266 265 265 266 266 266 266 266 265 264 264 264 263 263 262 261 259 257 255 251 246 241 237 234 232 231 232 232 233 234
296 293 289 287 287 286 288 289 290 288 287 284 282 280 279 278 275 273 270 272 275 277 278 279 278 276 272 269 269 271 274 277 279 280 281 278 275 277 285 291 292 292 290 287 286 285 286 284 282 280 279 276 271 267 262 262 263 265 266 267 267 267 267 267 266 266 265 265 265 264 263 262 261 259 257 253 249 244 240 237 234 233 233 233 233 233
291 288 287 288 289 291 293 291 288 285 283 282 280 278 276 275 274 274 275 278 281 283 283 285 286 286 284 282 279 279 284 288 290 290 288 285 284 285 289 289 287 284 282 280 278 278 279 279 279 279 278 277 273 268 264 263 264 265 266 267 267 268 268 268 267 267 266 266 266 265 264 263 262 260 258 255 251 247 243 240 238 236 235 234 233 233
290 290 291 292 293 294 294 290 286 282 281 280 279 278 275 273 274 278 282 286 289 291 292 292 292 295 299 299 299 298 297 295 292 290 288 287 288 288 286 281 278 277 277 275 274 273 273 274 274 275 276 276 274 271 268 267 267 267 267 268 268 269 269 269 269 268 268 268 267 266 265 264 262 260 258 255 252 249 246 243 240 239 237 236 235 233
294 295 295 294 294 293 290 286 284 282 281 280 280 280 278 278 282 286 289 293 297 300 304 304 302 300 299 295 295 296 297 296 294 292 290 288 287 284 281 276 273 271 271 270 269 268 268 269 270 271 273 273 272 271 271 270 269 269 268 269 269 270 271 271 271 271 271 270 269 268 267 265 263 261 259 256 253 250 246 244 242 240 239 238 236 235
296 296 295 294 293 290 286 283 281 281 281 281 282 283 285 289 293 296 300 305 306 306 305 301 298 296 294 292 293 295 299 299 296 291 287 284 282 280 278 273 271 269 268 267 267 266 267 267 269 270 270 270 271 271 270 270 270 270 270 271 271 272 273 274 274 274 274 273 272 271 269 267 264 262 259 256 253 250 246 244 242 240 240 239 238 236
297 295 293 292 290 287 283 281 280 280 281 283 284 287 292 297 301 304 307 307 304 301 298 294 292 293 294 294 295 297 301 298 292 286 280 277 275 274 273 270 267 267 268 269 268 267 266 268 270 271 272 271 271 271 272 273 273 273 274 275 275 275 276 276 277 276 276 275 274 272 270 267 264 261 258 255 252 248 245 243 241 240 240 240 239 238
295 292 290 287 284 281 278 278 278 280 282 286 289 294 301 304 305 304 303 302 300 298 296 293 292 293 293 291 291 291 292 286 281 276 275 272 272 272 272 271 270 270 272 273 273 273 273 272 271 271 271 271 273 274 276 278 279 280 279 279 279 278 278 277 277 276 275 274 273 271 269 266 262 259 255 252 249 246 243 242 242 242 242 242 242 240
290 287 287 285 282 279 277 277 279 281 286 289 292 296 300 300 299 298 300 300 298 296 293 291 289 288 286 284 282 281 278 273 270 269 268 269 270 274 282 290 293 290 284 286 292 298 295 283 273 269 269 274 277 280 282 284 284 283 282 281 280 279 278 277 276 275 274 272 271 269 267 264 260 256 253 249 246 244 243 243 243 244 245 246 245 244
289 286 285 283 281 279 279 280 283 287 291 294 296 297 297 294 293 294 295 295 292 289 287 285 283 282 281 280 279 277 272 271 271 273 277 284 294 304 312 313 309 301 293 294 297 297 294 283 275 271 274 280 283 285 286 286 285 284 283 281 280 279 278 277 275 274 272 271 269 267 264 261 258 255 251 248 246 245 245 246 247 249 250 250 248 245
290 287 284 282 282 282 284 286 289 293 298 301 302 301 297 295 295 295 294 291 287 283 281 281 281 282 284 285 283 279 274 277 285 296 305 304 304 303 303 303 299 294 290 291 293 293 291 288 286 286 286 286 287 288 288 288 287 286 285 283 282 281 279 277 275 273 271 269 267 265 262 259 256 254 251 250 249 249 249 251 253 253 252 250 247 242
294 292 290 289 288 289 290 292 295 298 302 302 300 298 295 296 297 297 294 291 289 287 287 287 287 287 289 288 285 282 282 287 296 305 309 303 297 295 294 295 293 290 287 289 292 295 296 295 294 294 291 288 289 290 291 291 291 290 289 287 286 283 281 278 276 273 270 268 266 263 261 258 256 254 252 252 252 253 254 255 254 253 249 246 241 235
300 297 296 295 295 295 296 298 299 300 301 299 297 295 294 297 298 297 295 296 296 295 292 292 291 290 288 284 281 283 290 298 305 308 306 298 292 289 289 289 287 284 284 287 290 294 294 293 292 291 288 288 291 294 294 295 295 294 293 291 288 285 282 278 275 272 270 267 264 262 260 258 256 255 254 255 255 255 255 252 249 243 236 233 231 223
305 304 302 301 301 300 300 300 300 299 299 297 295 294 294 296 296 295 295 298 297 294 289 288 288 288 288 287 288 293 300 302 304 303 300 290 282 280 284 288 287 286 291 294 296 294 289 285 284 284 284 288 294 297 298 299 298 297 295 292 288 285 281 277 274 271 268 265 263 261 259 257 256 256 256 255 254 251 244 235 223 207 188 172 164 159
308 307 305 304 303 302 301 299 298 296 296 294 292 291 292 292 292 292 294 295 292 288 285 285 286 289 292 296 297 297 295 294 297 302 304 292 283 282 292 300 303 304 307 304 299 293 283 278 276 278 283 293 298 300 300 302 301 299 296 293 289 285 280 276 272 269 266 264 261 259 258 257 256 255 253 248 241 227 198 166 153 144 126 115 109 107
309 308 306 305 303 302 299 297 296 294 293 290 289 288 289 289 287 286 287 287 286 286 288 290 292 295 297 299 297 293 287 289 300 315 321 303 292 291 301 301 301 301 304 300 295 289 281 277 275 283 298 302 302 302 304 305 304 302 300 295 291 285 280 275 271 268 265 262 260 258 256 253 251 247 237 219 191 163 143 131 125 118 108 105 103 102
309 308 305 304 302 301 298 296 294 292 290 287 286 286 289 288 283 279 278 280 284 289 294 296 296 296 295 294 292 289 287 294 310 324 327 303 292 290 295 294 292 291 289 287 289 291 291 292 285 155 302 303 303 306 309 310 309 307 306 301 295 290 285 280 275 270 266 261 257 252 247 240 229 211 184 157 143 134 128 124 120 115 111 108 105 104
307 305 303 302 301 299 296 294 291 289 287 286 286 287 288 286 281 275 274 278 284 290 293 293 292 290 287 284 282 283 287 296 307 314 313 296 287 286 289 288 288 288 288 288 291 295 297 298 295 280 278 295 302 307 310 311 311 312 311 306 301 298 301 304 300 291 284 261 242 220 199 174 155 143 136 131 128 125 123 121 120 117 115 112 110 107
304 302 300 300 298 297 295 292 290 287 285 287 289 289 288 283 278 275 275 277 280 283 285 286 286 286 284 281 279 280 283 291 299 305 303 292 286 286 287 287 289 292 296 292 288 285 284 288 292 294 291 291 293 299 305 310 313 315 316 309 305 305 316 332 353 29 54 66 87 99 106 113 114 115 117 118 118 118 118 119 119 119 119 117 114 111
302 301 299 298 297 296 294 292 289 287 287 291 293 293 289 282 278 278 279 276 273 273 276 280 283 285 286 285 283 282 283 288 296 301 301 291 285 285 287 286 288 292 296 291 287 282 277 279 283 287 289 287 282 278 294 308 314 317 318 311 306 307 316 334 8 47 63 69 75 81 86 93 96 99 104 106 108 110 111 113 114 115 116 117 117 117
302 300 299 298 298 297 296 295 293 293 294 297 298 295 290 283 281 281 281 278 274 272 273 276 278 281 284 286 287 288 288 292 297 300 296 286 282 282 284 282 285 289 292 288 286 283 279 278 277 279 283 283 278 268 283 304 312 317 320 313 309 309 317 337 13 52 68 73 75 77 76 79 81 85 92 97 100 102 104 106 107 109 110 112 115 117
301 300 299 300 300 300 300 300 301 301 302 302 300 296 289 283 281 282 283 282 280 278 278 276 275 275 277 281 284 287 290 294 296 294 288 281 278 278 279 279 282 284 285 283 281 280 280 280 279 277 277 278 278 284 303 308 315 324 330 322 318 319 329 351 22 55 74 78 79 79 77 77 78 82 88 95 97 98 99 100 102 104 106 108 109 111
299 299 300 302 302 303 304 304 305 306 307 305 301 297 291 286 285 286 288 288 286 283 281 279 277 276 275 276 278 281 285 288 288 286 281 276 273 272 272 276 277 277 275 276 277 278 278 280 280 278 274 271 271 281 311 315 326 338 344 331 329 334 350 5 26 52 76 83 85 85 86 88 90 93 96 97 97 96 96 97 99 101 104 105 107 109
300 301 303 304 304 305 305 306 307 307 307 304 301 298 293 290 290 291 293 292 289 285 281 280 279 279 278 277 276 276 278 279 279 277 275 273 270 268 270 274 274 270 267 269 271 273 275 277 277 277 275 267 256 246 271 298 323 340 344 333 339 350 2 11 27 49 73 88 94 97 97 97 99 101 102 100 98 96 95 96 98 100 103 105 107 109
302 303 303 304 305 305 306 306 307 306 304 301 298 295 293 291 291 292 292 291 288 285 281 279 279 279 278 276 275 274 274 274 274 273 272 270 268 267 269 272 272 269 266 265 265 266 267 269 271 273 275 268 244 214 227 243 259 288 314 344 356 2 6 12 27 48 71 90 99 102 100 96 95 98 102 103 103 102 102 102 102 103 104 105 107 109
303 303 303 304 305 305 305 305 304 303 301 298 295 293 290 291 292 293 292 291 289 286 282 279 279 278 277 276 275 274 274 273 273 272 270 269 268 269 268 269 270 271 270 266 263 261 261 262 264 265 265 256 225 189 192 196 205 204 180 78 16 2 2 11 23 42 64 82 93 97 94 89 89 93 98 100 101 103 105 105 106 107 108 109 111 112
303 303 303 304 305 304 303 302 301 300 298 296 294 292 290 293 297 300 300 298 295 291 287 284 282 281 279 277 275 273 271 270 269 268 268 271 272 271 269 268 269 271 272 269 265 261 258 258 259 259 256 244 216 185 177 183 200 212 180 111 96 54 22 23 30 45 66 74 81 85 86 85 86 88 92 92 90 91 96 100 104 105 103 105 111 117
303 303 304 305 305 304 302 300 298 297 296 294 292 291 293 297 301 304 306 305 302 299 296 294 292 291 289 287 282 276 269 264 261 262 269 276 277 275 271 270 270 272 273 270 266 261 256 255 254 252 245 224 198 177 165 163 154 116 86 116 121 106 67 36 28 39 68 70 71 72 76 79 81 83 87 86 85 85 88 92 97 99 97 94 96 102
303 303 303 303 302 301 300 299 298 298 298 297 295 294 295 300 304 306 307 305 303 302 300 297 296 295 294 293 291 287 277 260 251 257 273 281 283 282 280 278 275 273 271 269 268 266 264 261 259 254 234 200 179 165 153 139 115 96 99 145 143 127 96 44 24 38 63 65 66 67 71 76 80 82 83 83 84 85 86 88 88 88 86 85 83 82
302 301 301 301 300 300 300 300 300 300 300 299 298 297 299 303 306 307 306 303 302 301 300 299 296 294 291 291 293 294 293 277 259 262 279 292 297 299 297 292 285 279 274 273 275 279 287 289 295 300 292 178 162 153 144 132 121 110 94 62 75 90 101 106 94 80 74 70 69 71 77 83 84 83 79 76 75 76 79 80 78 77 75 76 78 80
300 300 301 301 302 302 302 302 302 302 301 300 299 299 301 305 307 307 305 302 301 300 300 300 298 296 293 294 297 300 305 304 295 286 286 300 307 310 308 303 296 292 288 288 293 299 308 316 323 332 13 104 120 126 128 127 120 105 76 57 57 63 71 82 91 93 91 85 81 80 85 90 91 87 80 74 70 68 71 77 80 81 79 78 80 83
302 302 303 303 303 303 302 302 302 302 301 300 299 300 303 308 309 307 304 302 301 301 301 301 299 296 295 298 301 305 309 310 309 308 307 309 310 311 311 311 311 311 310 314 324 335 343 339 341 5 89 95 93 93 99 110 111 106 96 90 85 81 73 65 69 80 92 94 94 92 94 94 92 89 86 80 74 67 62 67 74 82 87 89 90 91
304 304 304 303 303 302 301 302 302 302 302 301 301 302 306 310 311 309 305 305 303 303 303 301 298 295 293 296 301 307 311 313 315 316 317 315 314 314 314 315 319 324 328 339 1 18 25 16 12 19 71 96 96 88 79 87 98 106 112 109 101 91 79 65 60 66 82 91 96 99 99 97 94 92 92 90 84 74 62 56 56 62 74 90 98 102
304 304 303 303 302 302 302 302 303 303 302 301 302 305 311 314 314 312 308 307 305 303 302 301 298 295 293 296 300 308 314 316 317 318 318 318 318 317 318 318 318 322 331 353 20 39 48 43 37 33 35 62 90 99 93 84 86 94 104 105 100 94 86 75 64 62 70 76 80 87 96 102 105 107 106 100 94 85 75 62 50 43 43 70 97 111
303 302 301 302 302 302 303 303 304 303 302 302 305 309 314 316 314 311 307 305 303 301 300 299 298 296 295 298 306 317 323 322 321 319 321 321 320 319 320 319 316 314 316 346 20 43 56 55 50 45 39 43 60 86 96 87 81 78 80 87 93 94 92 83 73 67 68 69 68 70 79 95 107 113 113 107 103 98 92 78 62 47 33 47 81 108
302 300 300 301 302 303 303 304 304 303 302 304 308 313 317 316 313 309 304 302 301 300 299 298 297 295 296 304 318 330 334 329 327 325 328 326 324 322 322 322 319 314 306 321 360 34 56 62 58 52 46 43 46 58 84 88 86 80 71 71 79 88 93 87 78 71 71 72 74 76 81 86 94 102 107 108 108 106 103 93 79 61 39 43 70 97
302 301 301 302 302 303 303 304 303 303 302 307 312 315 316 314 311 307 304 303 302 301 300 298 296 295 302 318 334 340 340 334 333 333 335 331 327 326 325 327 326 323 316 324 342 4 37 66 67 57 47 40 38 40 58 76 91 93 81 67 67 76 86 85 80 73 72 74 77 81 85 87 90 97 107 112 113 113 111 105 96 81 59 64 82 99